• Processing (Info)

  • MPEC 2023-F201 : 2023 FY6

    The following Minor Planet Electronic Circular may be linked-to from your own Web pages, but must not otherwise be redistributed electronically.

    A form allowing access to any MPEC is at the bottom of this page.


    Read MPEC 2023-F200 Read MPEC 2023-F202


    M.P.E.C. 2023-F201                               Issued 2023 March 29, 10:04 UT
    
         The Minor Planet Electronic Circulars contain information on unusual
             minor planets, routine data on comets and natural satellites,
             and occasional editorial announcements.  They are published
        on behalf of Division F of the International Astronomical Union by the
              Minor Planet Center, Smithsonian Astrophysical Observatory,
                              Cambridge, MA 02138, U.S.A.
    			  
                 Prepared using the Tamkin Foundation Computer Network
    
                                  MPC@CFA.HARVARD.EDU
                URL https://www.minorplanetcenter.net/    ISSN 1523-6714
    
                                    2023 FY6                                 
    
    
    Observations:
         K23F06Y* C2023 03 27.41597612 21 57.188-22 40 02.24         20.79wUEF201F51
         K23F06Y  C2023 03 27.42697212 21 53.523-22 41 45.47         20.91wUEF201F51
         K23F06Y  C2023 03 27.43796512 21 49.836-22 43 29.15         20.95wUEF201F51
         K23F06Y  C2023 03 27.44894912 21 46.134-22 45 13.20         20.85wUEF201F51
         K23F06Y  C2023 03 27.51549612 21 23.550-22 55 44.81         20.04GVEF201F51
         K23F06Y  C2023 03 27.51613712 21 23.344-22 55 50.82         20.04GVEF201F51
         K23F06Y |C2023 03 28.21353 12 17 29.39 -24 59 29.4          20.5 GVEF201807
         K23F06Y |C2023 03 28.21768 12 17 27.59 -25 00 19.1          20.4 GVEF201807
         K23F06Y |C2023 03 28.22183 12 17 25.81 -25 01 08.8          20.6 GVEF201807
         K23F06Y mC2023 03 28.26667012 17 11.436-25 12 03.71         20.90GVEF201I52
         K23F06Y mC2023 03 28.26706312 17 11.310-25 12 08.10         22.13GVEF201I52
         K23F06Y mC2023 03 28.26745312 17 11.080-25 12 13.03         20.35GVEF201I52
         K23F06Y mC2023 03 28.26784312 17 10.914-25 12 17.78         20.82GVEF201I52
         K23F06Y 3C2023 03 28.33207212 16 48.463-25 25 06.47         20.34GVEF201T14
         K23F06Y 3C2023 03 28.33305712 16 48.018-25 25 18.96         20.30GVEF201T14
         K23F06Y 3C2023 03 28.33403512 16 47.584-25 25 31.41         20.29GVEF201T14
         K23F06Y 3C2023 03 28.33502912 16 47.137-25 25 43.96         20.24GVEF201T14
         K23F06Y 3C2023 03 28.33705112 16 46.232-25 26 09.58         20.40GVEF201T14
         K23F06Y 3C2023 03 28.33809612 16 45.758-25 26 22.79         20.36GVEF201T14
         K23F06Y 3C2023 03 28.33918812 16 45.272-25 26 36.66         20.32GVEF201T14
         K23F06Y |C2023 03 29.22423 12 09 23.90 -29 00 48.4          20.3 VuEF201807
         K23F06Y |C2023 03 29.23003 12 09 20.10 -29 02 27.0          20.2 VuEF201807
         K23F06Y |C2023 03 29.23584 12 09 16.28 -29 04 06.0          20.4 VuEF201807
    
    Observer details:
    807 Cerro Tololo Observatory, La Serena.  Observers T. Linder, R. Holmes, L.
        Horn.  1.00-m f/10.0 astrograph + CCD, 0.61-m f/6.5 Dall-Kirkham
        Astrograph + CCD.
    F51 Pan-STARRS 1, Haleakala.  Observers J. Bulger, T. Lowe, A. Schultz, I.
        Smith, K. Chambers.  Measurers K. Chambers, S. Chastel, T. de Boer, J.
        Fairlamb, H. Gao, M. Huber, C.-C. Lin, E. Magnier, Y. Ramanjooloo, R.
        Wainscoat, R. Weryk.  1.8-m Ritchey-Chretien + CCD.
    I52 Steward Observatory, Mt. Lemmon Station.  Observer J. B. Fazekas.
        Measurers E. J. Christensen, D. Fay, J. B. Fazekas, D. C. Fuls, A. R.
        Gibbs, A. D. Grauer, H. Groeller, J. K. Hogan, R. A. Kowalski, S. M.
        Larson, G. J. Leonard, D. Rankin, R. L. Seaman, A. Serrano, F. C. Shelly,
        K. W. Wierzchos.  1.0-m prime focus + CCD.
    T14 Canada-France-Hawaii Telescope, Maunakea.  Observers R. Wainscoat, L.
        Wells, E. Bertin.  Measurers R. Weryk, R. Wainscoat.  3.6-m Canada-France-
        Hawaii Telescope + CCD.
    
    Orbital elements:
    2023 FY6                                                 Earth MOID = 0.0256 AU
    Epoch 2023 Feb. 25.0 TT = JDT 2460000.5                 MPC                     
    M 330.97408              (2000.0)            P               Q                  
    n   0.34860990     Peri.  340.15820     +0.27055343     +0.96243669             
    a   1.9994455      Node   305.53259     -0.87945127     +0.23748457             
    e   0.7227321      Incl.    1.60026     -0.39162010     +0.13159293             
    P   2.83           H   25.25          G   0.15           U   8                  
    Residuals in seconds of arc
    230327 F51  0.2-  0.2-    230328 807  0.2+  0.2-    230328 T14  0.0   0.0
    230327 F51  0.1-  0.2+    230328 I52  0.1-  0.2-    230328 T14  0.0   0.0
    230327 F51  0.0   0.2+    230328 I52  0.5+  0.2+    230328 T14  0.0   0.0
    230327 F51  0.0   0.1-    230328 I52  0.3-  0.1+    230328 T14  0.0   0.0
    230327 F51  0.1-  0.1+    230328 I52  0.2-  0.1+    230329 807  0.1-  0.0
    230327 F51  0.0   0.2+    230328 T14  0.1+  0.1+    230329 807  0.1-  0.1+
    230328 807  0.1-  0.1-    230328 T14  0.0   0.0     230329 807  0.1-  0.0
    230328 807  0.1-  0.2-    230328 T14  0.0   0.0
    
    Ephemeris:
    2023 FY6                 a,e,i = 2.00, 0.72, 2                   q = 0.5544
    Date    TT    R. A. (2000) Decl.     Delta      r    Elong.  Phase     V
    2023 02 27    12 39 07.6 -07 42 14   0.4846  1.4169   145.7    23.2    25.5
    ...
    2023 03 14    12 40 26.8 -10 49 26   0.2618  1.2412   158.5    17.1    23.7
    ...
    2023 03 22    12 35 23.2 -14 48 35   0.1527  1.1434   163.4    14.4    22.3
    ...
    2023 03 28    12 18 49.6 -24 18 19   0.07555 1.0684   158.3    20.2    20.8
    2023 03 29    12 11 33.3 -27 59 26   0.06340 1.0558   154.8    23.8    20.5
    2023 03 30    11 59 59.9 -33 18 30   0.05174 1.0432   149.2    29.3    20.2
    ...
    2023 04 05    01 49 19.6 -28 53 13   0.04185 0.9671    37.1   141.4    25.3
    ...
    2023 04 13    01 05 18.7 -03 30 06   0.1411  0.8656    13.0   164.9    33.7
    ...
    2023 04 28    01 00 56.3 +03 16 53   0.3591  0.6871    22.0   146.6    30.0
    
    A. U. Tomatic                (C) Copyright 2023 MPC           M.P.E.C. 2023-F201
    


    Read MPEC 2023-F200 Read MPEC 2023-F202


    MPEC number:

    Enter an MPEC number in one of the following forms:

    • 1997-B01 (the full form)
    • J97B01 (the packed version of the full form)
    • B01 (the abbreviated form)